Regional Weather Roundup
Issued by NWS

Home | Current Version | Previous Version | Graphics & Text | Print | Product List | Glossary On
Versions: 1 2 3 4 5 6 7 8 9 10 11 12 13 14 15 16 17 18 19 20 21 22 23 24 25 26 27 28 29 30 31 32 33 34 35 36 37 38 39 40 41 42 43 44 45 46 47 48 49 50
000
ASUS43 KMKX 071700
RWRWI

WISCONSIN REGIONAL WEATHER ROUNDUP
NATIONAL WEATHER SERVICE MILWAUKEE/SULLIVAN WI
1200 PM CDT TUE JUL 07 2015

NOTE: "FAIR" INDICATES FEW OR NO CLOUDS BELOW 12,000 FEET WITH NO
SIGNIFICANT WEATHER AND/OR OBSTRUCTIONS TO VISIBILITY.

WIZ001-002-006>008-014>016-023>028-071800-
NORTHWEST WISCONSIN

CITY           SKY/WX    TMP DP  RH WIND       PRES   REMARKS
SUPERIOR ARPT  SUNNY     65  49  55 SE3       30.15F
ASHLAND        SUNNY     65  49  56 NE10      30.15R
HAYWARD        PTSUNNY   64  46  52 NE12      30.15S
SIREN          PTSUNNY   63  45  51 N10       30.16S
CUMBERLAND     PTSUNNY   61  45  55 N9G16     30.15S
RICE LAKE      PTSUNNY   63  47  56 N7G20     30.16S
CHETEK         PTSUNNY   64  48  57 N7        30.14S
LADYSMITH      PTSUNNY   63  47  56 N13       30.15S
EAU CLAIRE     NOT AVBL
MENOMONIE      PTSUNNY   66  45  46 N13G18    30.14S
NEW RICHMOND   PTSUNNY   64  47  54 N10       30.16S
OSCEOLA        PTSUNNY   64  47  54 N8        30.19S
$$

WIZ003>005-009-010-017-018-071800-
NORTH CENTRAL WISCONSIN

CITY           SKY/WX    TMP DP  RH WIND       PRES   REMARKS
MANITOWISH WTR CLOUDY    58  46  63 N9        30.12S
ARBOR VITAE    MOSUNNY   62  47  58 N15       30.11S
WOODRUFF       MOSUNNY   62  47  58 N15       30.11S
RHINELANDER    MOSUNNY   61  44  53 N9        30.11S
EAGLE RIVER    PTSUNNY   61  45  55 N13G22    30.10S
LAND O LAKES   PTSUNNY   61  44  54 NW9G20    30.11S
PHILLIPS       PTSUNNY   62  47  58 N10G17    30.11S
TOMAHAWK       PTSUNNY   58  45  61 N9        30.11S
MEDFORD        PTSUNNY   62  47  57 N9G18     30.12S
MERRILL        PTSUNNY   63  47  57 N8        30.10S
$$

WIZ029-030-035-036-043>047-071800-
CENTRAL WISCONSIN

CITY           SKY/WX    TMP DP  RH WIND       PRES   REMARKS
WAUSAU         PTSUNNY   64  45  49 NE9G20    30.08F
MOSINEE        PTSUNNY   61  46  59 NW12G18   30.11S
MARSHFIELD     CLOUDY    61  44  53 N10G20    30.11S
STEVENS POINT  CLOUDY    59  44  57 N9G17     30.10S
WAUPACA        CLOUDY    66  46  48 N12       30.08R
WAUTOMA        NOT AVBL
WISC RAPIDS    CLOUDY    63  44  50 N15       30.11R
CAMP DOUGLAS   NOT AVBL
$$

WIZ011>013-019>022-031-037>040-048>050-071800-
NORTHEAST WISCONSIN

CITY           SKY/WX    TMP DP  RH WIND       PRES   REMARKS
ANTIGO         PTSUNNY   62  48  61 N14G20    30.09R
SHAWANO        PTSUNNY   65  46  50 N9G17     30.07S
OCONTO         PTSUNNY   63  47  55 N12G20    30.05R
STURGEON BAY   CLOUDY    61  46  59 N18       30.06S
GREEN BAY      CLOUDY    65  48  54 NW10      30.06R
MANITOWOC      NOT AVBL
APPLETON       PTSUNNY   63  45  51 N14G20    30.06R
CLINTONVILLE   CLOUDY    63  43  48 NW12      30.07S
OSHKOSH        CLOUDY    64  47  53 N14G22    30.05R
$$

WIZ032>034-041-042-053>061-071800-
SOUTHWEST WISCONSIN

CITY           SKY/WX    TMP DP  RH WIND       PRES   REMARKS
LA CROSSE      CLOUDY    63  45  51 N13       30.12R
SPARTA         CLOUDY    62  44  52 N14       30.12S
VIROQUA        CLOUDY    62  47  58 N12G21    30.11R
BOSCOBEL       CLOUDY    67  51  56 N10       30.09R
PRAIRIE DU CHI PTSUNNY   66  47  51 N12G17    30.09R
PLATTEVILLE    PTSUNNY   64  56  75 N12G20    30.08R
$$

WIZ056-057-062-063-064-067-068-071800-
SOUTH CENTRAL WISCONSIN

CITY           SKY/WX    TMP DP  RH WIND       PRES   REMARKS
REEDSBURG      CLOUDY    63  50  63 N9        30.08R
BARABOO/DELLS  CLOUDY    64  49  59 N5        30.08R
LONE ROCK      NOT AVBL
MINERAL POINT  PTSUNNY   64  54  68 N9        30.07S
MADISON        PTSUNNY   65  52  62 N13G18    30.05R
MIDDLETON      MOSUNNY   68  52  57 N12       30.06R
WATERTOWN      PTSUNNY   65  52  63 N13G18    30.04R
MONROE         CLOUDY    64  54  68 N14       30.05R
JANESVILLE     NOT AVBL
$$

WIZ051-052-058>065-066-070>072-071800-
SOUTHEAST WISCONSIN

CITY           SKY/WX    TMP DP  RH WIND       PRES   REMARKS
MILWAUKEE      PTSUNNY   65  49  56 NE15G23   30.03R
WAUKESHA       PTSUNNY   63  50  63 NW10G17   30.05R
MILWAUKEE/TIMM CLOUDY    64  48  55 W12       30.04R
RACINE         MOSUNNY   66  48  52 NE18G24   30.05R
BURLINGTON     PTSUNNY   64  51  64 N10       30.03R
KENOSHA        SUNNY     66  50  56 NE13G22   30.03R
FOND DU LAC    CLOUDY    66  50  56 N14G21    30.06R
SHEBOYGAN      CLOUDY    65  48  54 N13G18    30.04R
WEST BEND      PTSUNNY   64  46  52 NW14G20   30.04R
JUNEAU         CLOUDY    64  50  62 N10       30.06S
$$

LSZ147-162-071800-
LAKE SUPERIOR

STATION/POSITION TIME  TEMP    WIND        PRES    WAVE
                       AIR SEA DIR/SP/G            HT/PER
                 (UTC) (F)     (DEG/KT/KT) (MB)    (FT/S)
W MID LAKE BUOY  1550   46 39  280/  6/  8 1020.2R   1
DEVILS ISLAND    1600   60     270/  3/  4 1020.8F
PORT WING        1640   61     320/  2/  2 1021.0S
SAXON HARBOR     1600   60      10/  9/ 11 1020.3R
$$

LMZ867-665-643>646-071800-
LAKE MICHIGAN

STATION/POSITION TIME  TEMP    WIND        PRES    WAVE
                       AIR SEA DIR/SP/G            HT/PER
                 (UTC) (F)     (DEG/KT/KT) (MB)    (FT/S)
CHAMBERS ISLAND  1600   60     310/ 13/ 18 1016.9S
N MID LAKE BUOY  1550   54 51  310/ 12/ 12 1015.9R   3/ 4
NORTHPORT PIER   1600   59     330/ 15/ 19 1016.6R
SISTER BAY       1614   61     340/ 18/ 21   N/A
ALGOMA LAKESHORE 1626          360/ 15/ 22   N/A
KEWAUNEE LAKESHO 1600   61     360/  9/ 19 1016.3R
SHEBOYGAN LAKESH 1600   59      10/ 11/ 12 1017.1R
PORT WASHINGTON  1640   62      40/  9/ 15 1017.6R
ATWATER BUOY     1600   59 58   30/ 14/ 17 1017.7S
MILWAUKEE LAKESH 1600   59      30/ 14/ 15   N/A
KENOSHA   LAKESH 1600   59      20/ 21/ 25 1016.3R
$$

TC  - TEMPERATURE IN CELSIUS
VSB - VISIBILITY IN STATUTE MILES
WCI - WIND CHILL INDEX
HX  - HEAT INDEX




USA.gov is the U.S. government's official web portal to all federal, state and local government web resources and services.